KAL1451 RKSI-RKPC

Flight info

Callsign KAL1451
Flight time 0h 43m
Altitude 25000
Route BOPTA Z51 BEDES Y711 DOTOL
Aircraft B77W/H-SDE1E2E3FGHIJ2J3J4J5M1RWXY/LB1D1

Departure

Time 2026-05-04 16:34
Airport Incheon International Airport (RKSI)

Arrival

Time 2026-05-04 17:17
Airport Jeju International Airport (RKPC)
Time Latitude Longitude Altitude Speed Heading
2026-05-04 15:33 37.46604 126.43497 37 ft 0 kts 324°
2026-05-04 16:12 37.46571 126.43525 36 ft 4 kts 317°
2026-05-04 16:12 37.46557 126.43613 35 ft 4 kts 238°
2026-05-04 16:13 37.46592 126.43664 37 ft 4 kts 229°
2026-05-04 16:13 37.46619 126.43720 35 ft 4 kts 241°
2026-05-04 16:14 37.46645 126.43778 36 ft 4 kts 240°
2026-05-04 16:14 37.46666 126.43823 35 ft 0 kts 242°
2026-05-04 16:26 37.46596 126.43870 38 ft 18 kts 139°
2026-05-04 16:27 37.46447 126.44006 38 ft 12 kts 145°
2026-05-04 16:28 37.46274 126.43820 38 ft 12 kts 234°
2026-05-04 16:28 37.46001 126.43337 38 ft 20 kts 234°
2026-05-04 16:29 37.46154 126.42979 38 ft 14 kts 324°
2026-05-04 16:30 37.46398 126.42762 38 ft 14 kts 324°
2026-05-04 16:31 37.46560 126.42617 36 ft 14 kts 325°
2026-05-04 16:31 37.46804 126.42401 37 ft 14 kts 324°
2026-05-04 16:32 37.47222 126.42027 38 ft 33 kts 324°
2026-05-04 16:33 37.47343 126.41702 38 ft 22 kts 235°
2026-05-04 16:33 37.47205 126.41625 38 ft 8 kts 144°
2026-05-04 16:34 37.46662 126.42112 46 ft 154 kts 145°
2026-05-04 16:34 37.45652 126.43021 1357 ft 189 kts 148°
2026-05-04 16:35 37.42069 126.45809 4832 ft 227 kts 150°
2026-05-04 16:35 37.38314 126.48564 6524 ft 282 kts 156°
2026-05-04 16:36 37.36476 126.49233 7479 ft 285 kts 170°
2026-05-04 16:36 37.32943 126.50332 9522 ft 297 kts 167°
2026-05-04 16:37 37.28993 126.51675 11176 ft 329 kts 167°
2026-05-04 16:37 37.26724 126.52640 11434 ft 363 kts 157°
2026-05-04 16:37 37.22088 126.55872 13240 ft 390 kts 150°
2026-05-04 16:38 37.18125 126.58692 15127 ft 399 kts 152°
2026-05-04 16:39 37.10264 126.62695 17818 ft 419 kts 182°
2026-05-04 16:39 37.04352 126.62423 19461 ft 433 kts 183°
2026-05-04 16:40 36.97289 126.62347 21805 ft 441 kts 182°
2026-05-04 16:40 36.92099 126.62417 23459 ft 446 kts 181°
2026-05-04 16:41 36.85976 126.62423 25497 ft 440 kts 185°
2026-05-04 16:41 36.76890 126.61793 26076 ft 436 kts 186°
2026-05-04 16:42 36.67904 126.63222 26076 ft 441 kts 166°
2026-05-04 16:43 36.62018 126.65391 26064 ft 441 kts 166°
2026-05-04 16:43 36.56115 126.67443 26097 ft 440 kts 167°
2026-05-04 16:43 36.53158 126.68439 26082 ft 440 kts 167°
2026-05-04 16:44 36.41385 126.72369 26102 ft 438 kts 167°
2026-05-04 16:45 36.35511 126.74335 26093 ft 436 kts 167°
2026-05-04 16:46 36.26742 126.77290 26094 ft 434 kts 167°
2026-05-04 16:46 36.20950 126.79237 26112 ft 434 kts 167°
2026-05-04 16:47 36.15071 126.80702 26108 ft 429 kts 178°
2026-05-04 16:47 36.09137 126.80637 26127 ft 424 kts 188°
2026-05-04 16:48 36.00338 126.79597 26140 ft 425 kts 188°
2026-05-04 16:48 35.97397 126.79269 26133 ft 425 kts 189°
2026-05-04 16:49 35.92164 126.78701 26139 ft 425 kts 188°
2026-05-04 16:49 35.86314 126.78069 26145 ft 424 kts 188°
2026-05-04 16:50 35.80431 126.77435 26128 ft 424 kts 188°
2026-05-04 16:50 35.74560 126.76804 26137 ft 423 kts 189°
2026-05-04 16:51 35.68689 126.76172 26137 ft 423 kts 188°
2026-05-04 16:51 35.65752 126.75857 26139 ft 423 kts 188°
2026-05-04 16:51 35.59890 126.75227 26142 ft 423 kts 188°
2026-05-04 16:52 35.54037 126.74600 26139 ft 422 kts 188°
2026-05-04 16:52 35.51945 126.74379 26143 ft 421 kts 189°
2026-05-04 16:53 35.46922 126.73840 26144 ft 422 kts 188°
2026-05-04 16:53 35.38731 126.72971 26132 ft 422 kts 189°
2026-05-04 16:54 35.35809 126.72662 26138 ft 421 kts 188°
2026-05-04 16:55 35.24176 126.71432 26143 ft 420 kts 188°
2026-05-04 16:55 35.18355 126.70818 26141 ft 420 kts 189°
2026-05-04 16:56 35.12534 126.70204 26146 ft 419 kts 189°
2026-05-04 16:56 35.03819 126.69282 26154 ft 419 kts 189°
2026-05-04 16:57 35.00914 126.68975 26157 ft 419 kts 188°
2026-05-04 16:57 34.95107 126.68360 26152 ft 419 kts 188°
2026-05-04 16:58 34.86320 126.67432 26155 ft 424 kts 188°
2026-05-04 16:58 34.83416 126.67127 26158 ft 424 kts 188°
2026-05-04 16:59 34.77539 126.66510 26160 ft 424 kts 188°
2026-05-04 17:00 34.65804 126.65278 26155 ft 422 kts 188°
2026-05-04 17:00 34.57066 126.64365 25905 ft 412 kts 188°
2026-05-04 17:01 34.51428 126.63777 24191 ft 410 kts 188°
2026-05-04 17:01 34.45575 126.63160 22081 ft 426 kts 187°
2026-05-04 17:02 34.39735 126.62552 20950 ft 415 kts 188°
2026-05-04 17:02 34.34044 126.61940 19786 ft 407 kts 188°
2026-05-04 17:03 34.31265 126.61642 19206 ft 405 kts 188°
2026-05-04 17:03 34.28498 126.61382 18859 ft 393 kts 184°
2026-05-04 17:03 34.23231 126.62698 18220 ft 384 kts 159°
2026-05-04 17:04 34.18671 126.65899 17253 ft 377 kts 150°
2026-05-04 17:04 34.14251 126.69242 16268 ft 372 kts 150°
2026-05-04 17:05 34.09889 126.72506 15357 ft 367 kts 150°
2026-05-04 17:05 34.05565 126.75714 14432 ft 363 kts 150°
2026-05-04 17:06 34.01303 126.78863 13504 ft 359 kts 150°
2026-05-04 17:06 33.99175 126.80432 13054 ft 356 kts 150°
2026-05-04 17:07 33.94976 126.83526 12154 ft 351 kts 150°
2026-05-04 17:07 33.93569 126.84562 11860 ft 350 kts 150°
2026-05-04 17:07 33.90755 126.85826 11365 ft 307 kts 180°
2026-05-04 17:07 33.88740 126.85585 10741 ft 278 kts 195°
2026-05-04 17:08 33.86907 126.84982 9671 ft 270 kts 200°
2026-05-04 17:08 33.83370 126.83542 7662 ft 271 kts 201°
2026-05-04 17:08 33.81609 126.82814 7060 ft 264 kts 200°
2026-05-04 17:09 33.79927 126.82123 6730 ft 249 kts 200°
2026-05-04 17:09 33.78291 126.81454 6450 ft 250 kts 200°
2026-05-04 17:09 33.76625 126.80778 6142 ft 256 kts 199°
2026-05-04 17:10 33.73184 126.79386 5628 ft 259 kts 199°
2026-05-04 17:10 33.68294 126.77418 5213 ft 237 kts 199°
2026-05-04 17:11 33.66735 126.76792 4960 ft 235 kts 198°
2026-05-04 17:11 33.65252 126.76024 4609 ft 230 kts 219°
2026-05-04 17:11 33.63368 126.72985 4347 ft 241 kts 237°
2026-05-04 17:12 33.62473 126.71272 4081 ft 241 kts 238°
2026-05-04 17:12 33.60753 126.67899 3605 ft 236 kts 239°
2026-05-04 17:13 33.58439 126.63366 2749 ft 204 kts 240°
2026-05-04 17:14 33.57225 126.60990 2278 ft 186 kts 240°
2026-05-04 17:14 33.56578 126.59721 2019 ft 169 kts 238°
2026-05-04 17:14 33.55472 126.57557 1615 ft 138 kts 237°
2026-05-04 17:15 33.54971 126.56578 1437 ft 137 kts 237°
2026-05-04 17:15 33.53983 126.54646 1057 ft 137 kts 237°
2026-05-04 17:16 33.52994 126.52711 681 ft 136 kts 237°
2026-05-04 17:16 33.51537 126.49850 139 ft 134 kts 237°
2026-05-04 17:17 33.51072 126.48950 97 ft 117 kts 238°
2026-05-04 17:17 33.50435 126.47927 100 ft 21 kts 196°
2026-05-04 17:18 33.50388 126.47985 100 ft 11 kts 78°
2026-05-04 17:18 33.50476 126.48168 100 ft 14 kts 58°
2026-05-04 17:19 33.50590 126.48390 99 ft 17 kts 58°
2026-05-04 17:19 33.50721 126.48647 98 ft 17 kts 58°
2026-05-04 17:20 33.50766 126.48866 96 ft 15 kts 134°
2026-05-04 17:20 33.50632 126.48821 96 ft 11 kts 238°
2026-05-04 17:20 33.50607 126.48788 95 ft 5 kts 197°
2026-05-04 17:21 33.50540 126.48818 98 ft 1 kts 149°
2026-05-04 17:21 33.50535 126.48822 98 ft 0 kts 149°